ATLAS 5 CENTAUR DEB, 43985

Orbit data source: Space-Track

ATLAS 5 CENTAUR DEB, 43985 is space debris in HEO originally from a launch on Wed, 17 Sep 2014 UTC launched from the Air Force Eastern Test Range (AFETR). Debris objects in space refer to the collection of defunct objects orbiting the Earth. Examples of debris include non-operational satellites, rocket bodies, and fragments generated from explosions, collisions, or faulty payload assembly.

Loading next visibility...
Identifier
43985, 2014-055AQ
Orbit
HEO
Country
Flag of USUS
Related business
Flag of USUnited Launch Alliance/Lockheed Martin (US)
Manufacturer
Unknown
Mission
Spacecraft
Bus & Motor
Unknown
Mass
Unknown
Launch date (UTC)
2014-09-17 (11 years ago)
Launch vehicle
Unknown
Launch site
Air Force Eastern Test Range (AFETR)
Object type
Payload
Rocket body
Debris
Shape & HBR
Unknown shape, 1.1 m
Radar Cross Section
Small (<0.1 m²)

Expand to show TLE details & history
Last TLE update: 1 month ago

TLE from 1 month ago
0 ATLAS 5 CENTAUR DEB
1 43985U 14055AQ  25274.05751086  .00000010  00000-0  00000+0 0  9996
2 43985  19.1547 198.1442 4828233  65.4105 336.7441  1.76780568  7449
Epoch: 2025-10-01T01:22Z
TLE epoch observation values (Epoch: 2025-10-01T01:22:48.938Z)
Latitude
0.00003°
Longitude
167.39306°
Altitude
12,089.878 km
Speed
5.419 km/s
True Right ascension
13h 12m 32s
True Declination
0° 00' 00"
Sunlit
Object was in daylight at epoch
Visualization orbit readout
Latitude
Unknown
Longitude
Unknown
Altitude
Unknown
Speed
Unknown
Apparent Right ascension
Unknown
Apparent Declination
Unknown
Sunlit
N/A
Visualization observer readout
Local Sidereal Time
08:18:40
Azimuth
Unknown
Elevation
Unknown
Doppler factor
Unknown
Orbital elements
Apogee altitude
36,466.563 km
Perigee altitude
8,565.168 km
Semi-major axis
28,894.002 km
Eccentricity
0.48282
Inclination
19.1547°
RAAN
198.1442°
Arg. of periapsis
65.4105°
True anomaly
294.4524°
Mean anomaly
336.7441°
Eccentric anomaly
318.36467°
Mean motion
0.44191 °/min
Orbital period
814.65 mins
BSTAR
0
Loading maneuver chart data...
Computing Atmospheric mass density...

Documentation

Showing up to 5 results
|